Location: Carbonear
(47.7333°N, 53.2500°W)
Time: 02:18:12
(UTC+00:00)

ITUPSAT 1 - Visible Passes

Search period start: 10 December 2022 00:00
Search period end: 20 December 2022 00:00
Orbit: 700 x 710 km, 98.5° (Epoch: 09 December)

Date Brightness Start Highest point End Pass type
(mag) Time Alt. Az. Time Alt. Az. Time Alt. Az.
10 Dec ? 09:53:28 10° E 09:56:28 17° ENE 09:59:28 10° NNE visible
11 Dec ? 10:35:20 10° SE 10:39:42 36° ENE 10:44:06 10° N visible
12 Dec ? 09:43:46 10° E 09:46:10 14° NE 09:48:34 10° NNE visible
13 Dec ? 10:25:12 10° ESE 10:29:21 30° ENE 10:33:30 10° N visible
14 Dec ? 09:34:24 10° ENE 09:35:53 11° NE 09:37:22 10° NE visible
15 Dec ? 10:15:09 10° ESE 10:18:59 25° ENE 10:22:51 10° N visible
17 Dec ? 10:05:09 10° ESE 10:08:38 20° ENE 10:12:08 10° NNE visible
19 Dec ? 09:55:17 10° E 09:58:18 17° ENE 10:01:20 10° NNE visible
